Location: Aufkirchen
(47.9603°N, 11.3653°E)
Time: 23:17:43
(UTC+02:00)

Altair - Pass Details

Date: 31 July 2021
Orbit: 1501 x 1682 km, 47.2° (Epoch: 22 September)

Event Time Altitude Azimuth Distance (km) Brightness Sun altitude
Exits shadow 04:24:33 12° 243° (WSW) 3,519 8.8 -12.1°
Maximum altitude 04:33:13 74° 161° (SSE) 1,565 7.5 -11.1°
Drops below altitude 10° 04:42:21 10° 79° (E) 3,654 10.5 -10.0°
Sets 04:45:22 0° 78° (ENE) 4,638 11.2 -9.6°
